Location: Castelnau
(43.6639°N, 0.8431°W)
Time: 16:04:29
(UTC+00:00)

Cosmos 1500 Rocket - Pass Details

Date: 13 January 2026
Orbit: 597 x 623 km, 82.5° (Epoch: 10 February)

Event Time Altitude Azimuth Distance (km) Brightness Sun altitude
Rises 05:41:29 0° 180° (S) 2,842 7.1 -20.0°
Reaches altitude 10° 05:43:41 10° 178° (S) 1,947 6.3 -19.6°
Maximum altitude 05:47:58 68° 96° (E) 659 3.8 -18.9°
Drops below altitude 10° 05:52:19 10° 13° (NNE) 1,980 6.2 -18.1°
Sets 05:54:34 0° 11° (NNE) 2,894 7.0 -17.7°
